This demonstration page uses our WeatherBlox Daily Observations layout. Learn more.

Left ArrowRight Arrow

44.8408, -93.29828

Hourly Observations for July 12, 2021

Temp ( °F °C ) Dew Point ( °F °C ) Humidity (%) Winds ( mph kmh ) Pressure ( in mb ) Visibility ( mi km ) Precip ( " mm )
12:53 am 00:53 Hazy 70 21.1 57 13.9 64 64 Calm 30.05 1018 6 10 0.00 0.00
1:53 am 01:53 Hazy 67 19.4 57 13.9 71 71 Calm 30.06 1018 6 10 0.00 0.00
2:53 am 02:53 Hazy 66 18.9 57 13.9 73 73 Calm 30.06 1018 6 10 0.00 0.00
3:53 am 03:53 Hazy 66 18.9 57 13.9 73 73 Calm 30.06 1018 6 10 0.00 0.00
4:53 am 04:53 Clear 64 17.8 59 15 84 84 SE 3 6 30.07 1018 7 11 0.00 0.00
5:53 am 05:53 Partly Cloudy with Mist and Fog 62 16.7 58 14.4 86 86 Calm 30.07 1018 6 10 0.00 0.00
6:53 am 06:53 Mostly Sunny 65 18.3 58 14.4 78 78 E 6 9 30.07 1018 9 14 0.00 0.00
7:53 am 07:53 Mostly Sunny 67 19.4 57 13.9 71 71 ESE 7 11 30.09 1019 10 16 0.00 0.00
8:53 am 08:53 Sunny 70 21.1 56 13.3 61 61 SSE 8 13 30.09 1019 10 16 0.00 0.00
9:53 am 09:53 Sunny 73 22.8 55 12.8 53 53 SE 9 15 30.09 1019 10 16 0.00 0.00
10:53 am 10:53 Sunny 75 23.9 54 12.2 48 48 SSE 8 13 30.09 1019 10 16 0.00 0.00
11:53 am 11:53 Sunny 78 25.6 53 11.7 42 42 SE 8 13 30.08 1019 10 16 0.00 0.00
12:53 pm 12:53 Sunny 78 25.6 51 10.6 39 39 Calm 30.07 1018 10 16 0.00 0.00
1:53 pm 13:53 Mostly Sunny 80 26.7 52 11.1 38 38 SSE 9 15 30.04 1017 10 16 0.00 0.00
2:53 pm 14:53 Mostly Sunny 82 27.8 55 12.8 40 40 S 13 20 30.03 1017 10 16 0.00 0.00
3:53 pm 15:53 Mostly Sunny 83 28.3 55 12.8 38 38 VRB 6 9 30.02 1017 10 16 0.00 0.00
4:53 pm 16:53 Partly Cloudy 81 27.2 56 13.3 42 42 SSE 10 17 30.01 1016 10 16 0.00 0.00
5:53 pm 17:53 Mostly Sunny 81 27.2 55 12.8 41 41 S 8 13 30.01 1016 10 16 0.00 0.00
6:53 pm 18:53 Mostly Sunny 80 26.7 56 13.3 44 44 S 7 11 30.01 1016 10 16 0.00 0.00
7:53 pm 19:53 Partly Cloudy 79 26.1 56 13.3 45 45 S 8 13 30.00 1016 10 16 0.00 0.00
8:53 pm 20:53 Partly Cloudy 78 25.6 57 13.9 48 48 S 6 9 30.00 1016 10 16 0.00 0.00
9:53 pm 21:53 Partly Cloudy 76 24.4 56 13.3 50 50 VRB 3 6 30.01 1016 10 16 0.00 0.00
10:53 pm 22:53 Mostly Clear 75 23.9 56 13.3 52 52 S 3 6 30.01 1016 10 16 0.00 0.00
11:53 pm 23:53 Mostly Clear 71 21.7 58 14.4 63 63 Calm 30.01 1016 10 16 0.00 0.00

Powered by AerisWeather